Location: Unspecified
(51.3762°N, 0.0000°E)
Time: 00:45:15
(UTC+00:00)

Tiangong 2 - Pass Details

Date: 24 May 2019
Orbit: 376 x 389 km, 42.8° (Epoch: 17 June)

Event Time Altitude Azimuth Distance (km) Brightness Sun altitude
Rises 21:44:50 0° 252° (WSW) 2,236 5.1 -12.2°
Reaches altitude 10° 21:47:27 10° 228° (SW) 1,383 3.8 -12.4°
Enters shadow 21:49:10 15° 195° (SSW) 1,116 3.0 -12.5°
